Time,TemperatureF,DewpointF,PressureIn,WindDirection,WindDirectionDegrees,WindSpeedMPH,WindSpeedGustMPH,Humidity,HourlyPrecipIn,Conditions,Clouds,dailyrainin,SoftwareType,DateUTC
2013-05-29 00:02:00,64.0,52.0,30.13,SE,140,3.0,7.0,65,0.00,,,0.27,,2013-05-29 04:02:00,
2013-05-29 00:13:00,64.0,53.0,30.13,NE,50,3.0,6.0,68,0.00,,,0.27,,2013-05-29 04:13:00,
2013-05-29 00:23:00,64.0,53.0,30.13,NE,50,3.0,6.0,68,0.00,,,0.27,,2013-05-29 04:23:00,
2013-05-29 00:33:00,64.0,53.0,30.13,ESE,120,3.0,3.0,68,0.00,,,0.27,,2013-05-29 04:33:00,
2013-05-29 00:42:00,64.0,53.0,30.13,ESE,120,3.0,3.0,68,0.00,,,0.27,,2013-05-29 04:42:00,
2013-05-29 00:53:00,64.0,54.0,30.13,SE,125,0.0,3.0,70,0.00,,,0.27,,2013-05-29 04:53:00,
2013-05-29 01:03:00,64.0,54.0,30.10,SE,140,2.0,8.0,70,0.00,,,0.27,,2013-05-29 05:03:00,
2013-05-29 01:12:00,64.0,54.0,30.10,SE,140,2.0,8.0,70,0.00,,,0.27,,2013-05-29 05:12:00,
2013-05-29 01:22:00,64.0,54.0,30.13,SE,140,3.0,8.0,70,0.00,,,0.27,,2013-05-29 05:22:00,
2013-05-29 01:32:00,64.0,54.0,30.13,SE,140,3.0,5.0,70,0.00,,,0.27,,2013-05-29 05:32:00,
2013-05-29 01:42:00,64.0,54.0,30.13,SE,140,3.0,5.0,70,0.00,,,0.27,,2013-05-29 05:42:00,
2013-05-29 01:52:00,64.0,53.0,30.10,SSE,150,2.0,6.0,68,0.00,,,0.27,,2013-05-29 05:52:00,
2013-05-29 02:02:00,65.0,54.0,30.13,ESE,115,2.0,6.0,68,0.00,,,0.27,,2013-05-29 06:02:00,
2013-05-29 02:12:00,65.0,54.0,30.13,ESE,115,2.0,6.0,68,0.00,,,0.27,,2013-05-29 06:12:00,
2013-05-29 02:21:00,64.0,53.0,30.13,SSE,155,3.0,8.0,68,0.00,,,0.27,,2013-05-29 06:21:00,
2013-05-29 02:32:00,64.0,54.0,30.10,SSE,165,3.0,6.0,69,0.00,,,0.27,,2013-05-29 06:32:00,
2013-05-29 02:42:00,64.0,54.0,30.10,SSE,165,3.0,6.0,69,0.00,,,0.27,,2013-05-29 06:42:00,
2013-05-29 02:52:00,64.0,55.0,30.10,South,170,2.0,7.0,72,0.00,,,0.27,,2013-05-29 06:52:00,
2013-05-29 03:01:00,64.0,55.0,30.10,SE,140,3.0,7.0,73,0.00,,,0.27,,2013-05-29 07:01:00,
2013-05-29 03:11:00,64.0,55.0,30.10,SE,140,3.0,7.0,73,0.00,,,0.27,,2013-05-29 07:11:00,
2013-05-29 03:21:00,64.0,56.0,30.10,SE,145,3.0,6.0,75,0.00,,,0.27,,2013-05-29 07:21:00,
2013-05-29 03:34:00,64.0,56.0,30.10,SE,130,2.0,5.0,76,0.00,,,0.27,,2013-05-29 07:34:00,
2013-05-29 03:42:00,64.0,56.0,30.10,SE,130,2.0,5.0,76,0.00,,,0.27,,2013-05-29 07:42:00,
2013-05-29 03:52:00,63.0,56.0,30.10,SSE,150,1.0,1.0,77,0.00,,,0.27,,2013-05-29 07:52:00,
2013-05-29 04:02:00,63.0,56.0,30.10,WNW,285,1.0,0.0,77,0.00,,,0.27,,2013-05-29 08:02:00,
2013-05-29 04:11:00,63.0,56.0,30.10,WNW,285,1.0,0.0,77,0.00,,,0.27,,2013-05-29 08:11:00,
2013-05-29 04:22:00,64.0,57.0,30.10,SSE,150,1.0,5.0,78,0.00,,,0.27,,2013-05-29 08:22:00,
2013-05-29 04:32:00,63.0,56.0,30.10,South,180,2.0,3.0,78,0.00,,,0.27,,2013-05-29 08:32:00,
2013-05-29 04:42:00,63.0,56.0,30.10,South,180,2.0,3.0,78,0.00,,,0.27,,2013-05-29 08:42:00,
2013-05-29 04:52:00,64.0,58.0,30.10,South,190,1.0,3.0,80,0.00,,,0.27,,2013-05-29 08:52:00,
2013-05-29 05:01:00,64.0,58.0,30.10,NE,35,1.0,1.0,80,0.00,,,0.27,,2013-05-29 09:01:00,
2013-05-29 05:11:00,64.0,58.0,30.10,NE,35,1.0,1.0,80,0.00,,,0.27,,2013-05-29 09:11:00,
2013-05-29 05:21:00,64.0,58.0,30.10,SE,145,1.0,3.0,80,0.00,,,0.27,,2013-05-29 09:21:00,
2013-05-29 05:33:00,65.0,59.0,30.10,SSE,160,1.0,6.0,80,0.00,,,0.27,,2013-05-29 09:33:00,
2013-05-29 05:42:00,65.0,59.0,30.10,SSE,160,1.0,6.0,80,0.00,,,0.27,,2013-05-29 09:42:00,
2013-05-29 05:52:00,66.0,59.0,30.10,NW,315,2.0,6.0,79,0.00,,,0.27,,2013-05-29 09:52:00,
2013-05-29 06:03:00,66.0,59.0,30.10,SW,230,2.0,3.0,77,0.00,,,0.27,,2013-05-29 10:03:00,
2013-05-29 06:12:00,66.0,59.0,30.10,SW,230,2.0,3.0,77,0.00,,,0.27,,2013-05-29 10:12:00,
2013-05-29 06:22:00,65.0,58.0,30.10,SSE,160,2.0,6.0,77,0.00,,,0.27,,2013-05-29 10:22:00,
2013-05-29 06:33:00,65.0,58.0,30.10,SE,140,3.0,5.0,77,0.00,,,0.27,,2013-05-29 10:33:00,
2013-05-29 06:42:00,65.0,58.0,30.10,SE,140,3.0,5.0,77,0.00,,,0.27,,2013-05-29 10:42:00,
2013-05-29 06:53:00,66.0,58.0,30.10,SE,145,1.0,3.0,75,0.00,,,0.27,,2013-05-29 10:53:00,
2013-05-29 07:02:00,66.0,58.0,30.10,SE,135,2.0,2.0,75,0.00,,,0.27,,2013-05-29 11:02:00,
2013-05-29 07:12:00,66.0,58.0,30.10,SE,135,2.0,2.0,75,0.00,,,0.27,,2013-05-29 11:12:00,
2013-05-29 07:22:00,68.0,57.0,30.10,SSE,165,1.0,3.0,68,0.00,,,0.27,,2013-05-29 11:22:00,
2013-05-29 07:32:00,71.0,57.0,30.10,West,275,1.0,2.0,61,0.00,,,0.27,,2013-05-29 11:32:00,
2013-05-29 07:42:00,71.0,57.0,30.10,West,275,1.0,2.0,61,0.00,,,0.27,,2013-05-29 11:42:00,
2013-05-29 07:52:00,72.0,56.0,30.13,WSW,240,0.0,1.0,57,0.00,,,0.27,,2013-05-29 11:52:00,
2013-05-29 08:01:00,72.0,57.0,30.13,South,180,1.0,3.0,60,0.00,,,0.27,,2013-05-29 12:01:00,
2013-05-29 08:11:00,72.0,57.0,30.13,South,180,1.0,3.0,60,0.00,,,0.27,,2013-05-29 12:11:00,
2013-05-29 08:22:00,73.0,57.0,30.10,SSW,195,2.0,5.0,58,0.00,,,0.27,,2013-05-29 12:22:00,
2013-05-29 08:32:00,73.0,57.0,30.10,WNW,295,3.0,6.0,58,0.00,,,0.27,,2013-05-29 12:32:00,
2013-05-29 08:42:00,73.0,57.0,30.10,WNW,295,3.0,6.0,58,0.00,,,0.27,,2013-05-29 12:42:00,
2013-05-29 08:52:00,73.0,57.0,30.10,SE,145,3.0,6.0,57,0.00,,,0.27,,2013-05-29 12:52:00,
2013-05-29 09:02:00,74.0,58.0,30.10,WSW,240,5.0,8.0,57,0.00,,,0.27,,2013-05-29 13:02:00,
2013-05-29 09:11:00,74.0,58.0,30.10,WSW,240,5.0,8.0,57,0.00,,,0.27,,2013-05-29 13:11:00,
2013-05-29 09:22:00,75.0,58.0,30.10,WSW,250,3.0,7.0,56,0.00,,,0.27,,2013-05-29 13:22:00,
2013-05-29 09:32:00,75.0,58.0,30.13,West,280,5.0,8.0,56,0.00,,,0.27,,2013-05-29 13:32:00,
2013-05-29 09:42:00,75.0,58.0,30.13,West,280,5.0,8.0,56,0.00,,,0.27,,2013-05-29 13:42:00,
2013-05-29 09:53:00,76.0,58.0,30.13,South,190,5.0,8.0,54,0.00,,,0.27,,2013-05-29 13:53:00,
2013-05-29 10:02:00,76.0,58.0,30.10,West,275,5.0,5.0,54,0.00,,,0.27,,2013-05-29 14:02:00,
2013-05-29 10:11:00,76.0,58.0,30.10,West,275,5.0,5.0,54,0.00,,,0.27,,2013-05-29 14:11:00,
2013-05-29 10:21:00,76.0,57.0,30.10,North,5,5.0,8.0,52,0.00,,,0.23,,2013-05-29 14:21:00,
2013-05-29 10:32:00,77.0,57.0,30.13,West,260,5.0,9.0,50,0.00,,,0.23,,2013-05-29 14:32:00,
2013-05-29 10:42:00,77.0,57.0,30.13,West,260,5.0,9.0,50,0.00,,,0.23,,2013-05-29 14:42:00,
2013-05-29 10:52:00,79.0,59.0,30.10,SW,230,6.0,10.0,50,0.00,,,0.21,,2013-05-29 14:52:00,
2013-05-29 11:01:00,80.0,60.0,30.10,WSW,255,3.0,5.0,51,0.00,,,0.21,,2013-05-29 15:01:00,
2013-05-29 11:11:00,80.0,60.0,30.13,WSW,245,5.0,6.0,50,0.00,,,0.21,,2013-05-29 15:11:00,
2013-05-29 11:21:00,80.0,60.0,30.13,WSW,245,5.0,6.0,50,0.00,,,0.21,,2013-05-29 15:21:00,
2013-05-29 11:33:00,81.0,60.0,30.13,WNW,285,5.0,6.0,49,0.00,,,0.21,,2013-05-29 15:33:00,
2013-05-29 11:42:00,81.0,60.0,30.13,WNW,285,5.0,6.0,49,0.00,,,0.21,,2013-05-29 15:42:00,
2013-05-29 11:53:00,82.0,61.0,30.13,WNW,300,5.0,6.0,49,0.00,,,0.21,,2013-05-29 15:53:00,
2013-05-29 12:03:00,82.0,59.0,30.13,West,275,5.0,6.0,46,0.00,,,0.20,,2013-05-29 16:03:00,
2013-05-29 12:12:00,82.0,59.0,30.13,West,275,5.0,6.0,46,0.00,,,0.20,,2013-05-29 16:12:00,
2013-05-29 12:22:00,85.0,61.0,30.13,NW,325,3.0,7.0,45,0.00,,,0.07,,2013-05-29 16:22:00,
2013-05-29 12:32:00,84.0,60.0,30.13,WNW,285,5.0,7.0,45,0.00,,,0.03,,2013-05-29 16:32:00,
2013-05-29 12:42:00,84.0,60.0,30.13,WNW,285,5.0,7.0,45,0.00,,,0.03,,2013-05-29 16:42:00,
2013-05-29 12:52:00,85.0,61.0,30.13,WNW,290,3.0,7.0,44,0.00,,,0.01,,2013-05-29 16:52:00,
2013-05-29 13:02:00,85.0,61.0,30.13,SW,230,5.0,8.0,44,0.00,,,0.01,,2013-05-29 17:02:00,
2013-05-29 13:12:00,85.0,61.0,30.13,SW,230,5.0,8.0,44,0.00,,,0.01,,2013-05-29 17:12:00,
2013-05-29 13:22:00,85.0,61.0,30.13,SW,230,5.0,8.0,44,0.00,,,0.01,,2013-05-29 17:22:00,
2013-05-29 13:32:00,87.0,62.0,30.10,ESE,105,2.0,5.0,43,0.00,,,0.00,,2013-05-29 17:32:00,
2013-05-29 13:42:00,87.0,62.0,30.10,ESE,105,2.0,5.0,43,0.00,,,0.00,,2013-05-29 17:42:00,
2013-05-29 13:52:00,86.0,62.0,30.10,SW,215,5.0,6.0,44,0.00,,,0.00,,2013-05-29 17:52:00,
2013-05-29 14:01:00,87.0,62.0,30.10,WSW,240,6.0,7.0,44,0.00,,,0.00,,2013-05-29 18:01:00,
2013-05-29 14:13:00,88.0,63.0,30.10,WSW,250,5.0,6.0,43,0.00,,,0.00,,2013-05-29 18:13:00,
2013-05-29 14:22:00,88.0,63.0,30.10,WSW,250,5.0,6.0,43,0.00,,,0.00,,2013-05-29 18:22:00,
2013-05-29 14:32:00,88.0,61.0,30.10,NW,305,5.0,6.0,40,0.00,,,0.00,,2013-05-29 18:32:00,
2013-05-29 14:42:00,88.0,61.0,30.10,NW,305,5.0,6.0,40,0.00,,,0.00,,2013-05-29 18:42:00,
2013-05-29 14:52:00,88.0,61.0,30.10,SE,140,5.0,7.0,40,0.00,,,0.00,,2013-05-29 18:52:00,
2013-05-29 15:02:00,89.0,61.0,30.10,SSE,150,6.0,6.0,40,0.00,,,0.00,,2013-05-29 19:02:00,
2013-05-29 15:11:00,89.0,62.0,30.10,SE,145,6.0,8.0,41,0.00,,,0.00,,2013-05-29 19:11:00,
2013-05-29 15:22:00,89.0,62.0,30.10,SE,145,6.0,8.0,41,0.00,,,0.00,,2013-05-29 19:22:00,
2013-05-29 15:32:00,89.0,62.0,30.10,South,170,5.0,8.0,41,0.00,,,0.00,,2013-05-29 19:32:00,
2013-05-29 15:44:00,90.0,63.0,30.10,SE,135,5.0,7.0,41,0.00,,,0.00,,2013-05-29 19:44:00,
2013-05-29 15:53:00,90.0,63.0,30.10,SE,135,5.0,7.0,41,0.00,,,0.00,,2013-05-29 19:53:00,
2013-05-29 16:03:00,90.0,62.0,30.10,SE,135,6.0,7.0,39,0.00,,,0.00,,2013-05-29 20:03:00,
2013-05-29 16:11:00,90.0,62.0,30.10,SE,135,6.0,7.0,39,0.00,,,0.00,,2013-05-29 20:11:00,
2013-05-29 16:23:00,89.0,61.0,30.10,South,180,5.0,8.0,40,0.00,,,0.00,,2013-05-29 20:23:00,
2013-05-29 16:33:00,95.0,66.0,30.10,SE,125,6.0,8.0,39,0.00,,,0.00,,2013-05-29 20:33:00,
2013-05-29 16:42:00,95.0,66.0,30.10,SE,125,6.0,8.0,39,0.00,,,0.00,,2013-05-29 20:42:00,
2013-05-29 16:53:00,92.0,63.0,30.10,West,270,3.0,6.0,39,0.00,,,0.00,,2013-05-29 20:53:00,
2013-05-29 17:02:00,90.0,62.0,30.07,SW,235,3.0,3.0,39,0.00,,,0.00,,2013-05-29 21:02:00,
2013-05-29 17:12:00,90.0,62.0,30.07,SW,235,3.0,3.0,39,0.00,,,0.00,,2013-05-29 21:12:00,
2013-05-29 17:22:00,88.0,61.0,30.07,SE,140,3.0,8.0,40,0.00,,,0.00,,2013-05-29 21:22:00,
2013-05-29 17:33:00,87.0,60.0,30.07,SSE,150,5.0,6.0,40,0.00,,,0.00,,2013-05-29 21:33:00,
2013-05-29 17:43:00,87.0,60.0,30.07,SSE,150,5.0,6.0,40,0.00,,,0.00,,2013-05-29 21:43:00,
2013-05-29 17:53:00,88.0,61.0,30.07,SSE,150,5.0,6.0,40,0.00,,,0.00,,2013-05-29 21:53:00,
2013-05-29 18:03:00,87.0,61.0,30.07,ESE,120,6.0,7.0,42,0.00,,,0.00,,2013-05-29 22:03:00,
2013-05-29 18:12:00,87.0,61.0,30.07,ESE,120,6.0,7.0,42,0.00,,,0.00,,2013-05-29 22:12:00,
2013-05-29 18:23:00,86.0,60.0,30.07,NW,325,2.0,6.0,41,0.00,,,0.00,,2013-05-29 22:23:00,
2013-05-29 18:33:00,86.0,60.0,30.07,SSW,205,2.0,3.0,42,0.00,,,0.00,,2013-05-29 22:33:00,
2013-05-29 18:42:00,82.0,59.0,30.10,SE,140,2.0,5.0,46,0.00,,,0.00,,2013-05-29 22:42:00,
2013-05-29 18:53:00,82.0,59.0,30.10,SE,140,2.0,5.0,46,0.00,,,0.00,,2013-05-29 22:53:00,
2013-05-29 19:02:00,79.0,58.0,30.10,SE,125,1.0,3.0,49,0.00,,,0.00,,2013-05-29 23:02:00,
2013-05-29 19:12:00,79.0,58.0,30.10,SE,125,1.0,3.0,49,0.00,,,0.00,,2013-05-29 23:12:00,
2013-05-29 19:22:00,74.0,59.0,30.10,South,170,0.0,2.0,59,0.00,,,0.00,,2013-05-29 23:22:00,
2013-05-29 19:33:00,72.0,58.0,30.10,NE,45,1.0,2.0,61,0.00,,,0.00,,2013-05-29 23:33:00,
2013-05-29 19:42:00,73.0,59.0,30.10,SE,145,3.0,6.0,61,0.00,,,0.00,,2013-05-29 23:42:00,
2013-05-29 19:53:00,73.0,59.0,30.10,SE,145,3.0,6.0,61,0.00,,,0.00,,2013-05-29 23:53:00,
2013-05-29 20:01:00,73.0,58.0,30.10,SE,135,2.0,5.0,60,0.00,,,0.00,,2013-05-30 00:01:00,
2013-05-29 20:11:00,73.0,58.0,30.10,SE,135,2.0,5.0,60,0.00,,,0.00,,2013-05-30 00:11:00,
2013-05-29 20:22:00,72.0,58.0,30.07,SSE,155,1.0,3.0,61,0.00,,,0.00,,2013-05-30 00:22:00,
2013-05-29 20:32:00,71.0,58.0,30.07,SSE,150,2.0,3.0,64,0.00,,,0.00,,2013-05-30 00:32:00,
2013-05-29 20:42:00,71.0,58.0,30.07,SSE,150,2.0,3.0,64,0.00,,,0.00,,2013-05-30 00:42:00,
2013-05-29 20:52:00,71.0,59.0,30.07,SE,145,1.0,5.0,66,0.00,,,0.00,,2013-05-30 00:52:00,
2013-05-29 21:01:00,71.0,59.0,30.07,SSE,155,0.0,2.0,67,0.00,,,0.00,,2013-05-30 01:01:00,
2013-05-29 21:11:00,71.0,59.0,30.07,SSE,155,0.0,2.0,67,0.00,,,0.00,,2013-05-30 01:11:00,
2013-05-29 21:22:00,71.0,60.0,30.07,West,260,1.0,2.0,68,0.00,,,0.00,,2013-05-30 01:22:00,
2013-05-29 21:32:00,72.0,60.0,30.07,South,170,1.0,2.0,66,0.00,,,0.00,,2013-05-30 01:32:00,
2013-05-29 21:42:00,72.0,60.0,30.07,South,170,1.0,2.0,66,0.00,,,0.00,,2013-05-30 01:42:00,
2013-05-29 21:52:00,72.0,60.0,30.07,SE,140,1.0,2.0,65,0.00,,,0.00,,2013-05-30 01:52:00,
2013-05-29 22:01:00,72.0,60.0,30.07,SSE,165,2.0,5.0,65,0.00,,,0.00,,2013-05-30 02:01:00,
2013-05-29 22:11:00,72.0,60.0,30.07,SSE,165,2.0,5.0,65,0.00,,,0.00,,2013-05-30 02:11:00,
2013-05-29 22:21:00,71.0,59.0,30.10,SE,125,1.0,2.0,67,0.00,,,0.00,,2013-05-30 02:21:00,
2013-05-29 22:32:00,71.0,59.0,30.10,SE,125,1.0,2.0,67,0.00,,,0.00,,2013-05-30 02:32:00,
2013-05-29 22:42:00,71.0,59.0,30.10,SE,125,1.0,2.0,67,0.00,,,0.00,,2013-05-30 02:42:00,
2013-05-29 22:52:00,71.0,59.0,30.10,SE,125,1.0,2.0,67,0.00,,,0.00,,2013-05-30 02:52:00,
2013-05-29 23:02:00,70.0,58.0,30.10,SSE,160,3.0,6.0,66,0.00,,,0.00,,2013-05-30 03:02:00,
2013-05-29 23:11:00,69.0,58.0,30.10,WSW,255,1.0,5.0,69,0.00,,,0.00,,2013-05-30 03:11:00,
2013-05-29 23:21:00,69.0,58.0,30.10,WSW,255,1.0,5.0,69,0.00,,,0.00,,2013-05-30 03:21:00,
2013-05-29 23:33:00,69.0,58.0,30.10,SE,125,1.0,2.0,68,0.00,,,0.00,,2013-05-30 03:33:00,
2013-05-29 23:43:00,69.0,58.0,30.10,SE,125,1.0,2.0,68,0.00,,,0.00,,2013-05-30 03:43:00,
2013-05-29 23:53:00,69.0,58.0,30.10,SSE,160,1.0,1.0,68,0.00,,,0.00,,2013-05-30 03:53:00,